Weather History for Omak, WA

Change the Weather History Date:

Friday, September 20, 2013

  Actual Average Record
Temperature  
Mean Temperature 59 °F 61 °F  
Max Temperature 77 °F 76 °F 90 °F (1967)
Min Temperature 41 °F 46 °F 29 °F (1972)
Degree Days  
Heating Degree Days 6 5  
Month to date heating degree days 27 61  
Since 1 July heating degree days 27 92  
Cooling Degree Days 0 1  
Month to date cooling degree days 128 52  
Year to date cooling degree days 814 658  
Growing Degree Days 10 (Base 50)    
Moisture  
Dew Point 41 °F    
Average Humidity 58    
Maximum Humidity 89    
Minimum Humidity 26    
Precipitation  
Precipitation 0.00 in 0.02 in 0.15 in (1945)
Month to date precipitation 0.92 0.34  
Year to date precipitation 8.34 9.36  
Sea Level Pressure  
Sea Level Pressure 29.73 in    
Wind  
Wind Speed 3 mph (NW)    
Max Wind Speed 12 mph    
Max Gust Speed 14 mph    
Visibility 10 miles    
Events      
T = Trace of Precipitation, MM = Missing Value Source: NWS Daily Summary

Daily Weather History Graph

Daily Weather History Graph

Search for Another Location

Airport:

Trip Planner

Search our weather history database for the weather conditions in past years. The results will help you decide how hot, cold, wet, or windy it might be!

Date:

Astronomy

Sep. 20, 2013 Rise Set
Actual Time 6:42 AM PDT 6:59 PM PDT
Civil Twilight 6:11 AM PDT 7:30 PM PDT
Nautical Twilight 5:34 AM PDT 8:07 PM PDT
Astronomical Twilight 4:55 AM PDT 8:45 PM PDT
Moon 7:24 PM PDT (9/20) 8:12 AM PDT (9/20)
Length of Visible Light 13h 19m
Length of Day
12h 17m
Full, 98% of the Moon is Illuminated
Sep 20
Full
Sep 26
Last Quarter
Oct 4
New
Oct 11
First Quarter
Oct 18
Full

Hourly Weather History & Observations

Time (PDT) Temp. Windchill Dew Point Humidity Pressure Visibility Wind Dir Wind Speed Gust Speed Precip Events Conditions
12:53 AM 46.0 °F 44.8 °F 39.9 °F 79% 29.93 in 10.0 mi NW 3.5 mph - N/A   Clear
1:53 AM 45.0 °F 43.5 °F 39.9 °F 82% 29.91 in 10.0 mi WNW 3.5 mph - N/A   Clear
2:53 AM 43.0 °F - 37.9 °F 82% 29.90 in 10.0 mi Calm Calm - N/A   Clear
3:53 AM 43.0 °F 41.3 °F 39.0 °F 86% 29.89 in 10.0 mi NNW 3.5 mph - N/A   Clear
4:53 AM 44.1 °F 41.5 °F 39.0 °F 82% 29.88 in 10.0 mi NNW 4.6 mph - N/A   Clear
5:53 AM 44.1 °F 42.5 °F 39.0 °F 82% 29.86 in 10.0 mi NNW 3.5 mph - N/A   Clear
6:53 AM 44.1 °F - 39.0 °F 82% 29.86 in 10.0 mi Calm Calm - N/A   Clear
7:53 AM 48.9 °F - 42.1 °F 77% 29.86 in 10.0 mi Calm Calm - N/A   Clear
8:53 AM 55.0 °F - 43.0 °F 64% 29.83 in 10.0 mi Calm Calm - N/A   Clear
9:53 AM 59.0 °F - 42.1 °F 53% 29.81 in 10.0 mi Calm Calm - N/A   Clear
10:53 AM 63.0 °F - 44.1 °F 50% 29.78 in 10.0 mi Calm Calm - N/A   Clear
11:53 AM 66.0 °F - 45.0 °F 47% 29.75 in 10.0 mi Variable 3.5 mph - N/A   Clear
12:53 PM 71.1 °F - 44.1 °F 38% 29.71 in 10.0 mi East 4.6 mph - N/A   Clear
1:53 PM 73.9 °F - 39.0 °F 28% 29.67 in 10.0 mi Variable 4.6 mph - N/A   Clear
2:53 PM 73.9 °F - 42.1 °F 32% 29.65 in 10.0 mi SSE 5.8 mph - N/A   Clear
3:53 PM 75.9 °F - 41.0 °F 29% 29.62 in 10.0 mi SE 4.6 mph - N/A   Clear
4:53 PM 77.0 °F - 39.9 °F 26% 29.59 in 10.0 mi Calm Calm - N/A   Clear
5:53 PM 77.0 °F - 39.9 °F 26% 29.57 in 10.0 mi Calm Calm - N/A   Clear
6:53 PM 66.9 °F - 46.0 °F 47% 29.57 in 10.0 mi WNW 3.5 mph - N/A   Clear
7:53 PM 64.9 °F - 42.1 °F 43% 29.56 in 10.0 mi WNW 9.2 mph - N/A   Clear
8:53 PM 63.0 °F - 42.1 °F 46% 29.56 in 10.0 mi NW 8.1 mph - N/A   Clear
9:53 PM 57.9 °F - 42.1 °F 56% 29.57 in 10.0 mi WNW 6.9 mph - N/A   Clear
10:53 PM 57.0 °F - 42.1 °F 57% 29.55 in 10.0 mi Calm Calm - N/A   Clear
11:53 PM 55.0 °F - 42.1 °F 62% 29.55 in 10.0 mi WNW 4.6 mph - N/A   Clear